{"data":{"norad_id":37677,"intl_designator":"2011-026A","name":"ZHONGXING-10","alt_names":[],"object_type":"PAYLOAD","status":"ACTIVE","operator":null,"country":"PRC","launch_date":"2011-06-20","launch_site_code":"XICLF","launch_vehicle":null,"mission":null,"orbit_class":"UNKNOWN","rcs_meters":50.1187,"size_class":null,"mass_kg":null,"dimensions":null,"purposes":["comms"],"wikipedia_slug":null,"has_3d_model":false,"image_url":null,"decayed_at":null,"tle_current":{"epoch":"2026-09-16T23:16:57.553248Z","epoch_age_seconds":323284,"freshness":"STALE","line1":"1 37677U 11026A   26259.97011057 -.00000193  00000+0  00000+0 0  9996","line2":"2 37677   1.2775  82.9635 0002613  69.1325 278.5051  1.00272197 55912","mean_motion":1.00272197,"eccentricity":0.0002613,"inclination_deg":1.2775,"raan_deg":82.9635,"arg_perigee_deg":69.1325,"mean_anomaly_deg":278.5051,"bstar":0,"rev_number":5591,"period_min":1436.0910033716,"perigee_km":35775.461848748,"apogee_km":35797.497077312,"semimajor_km":42164.61646303,"source":"CELESTRAK","updated_at":"2026-09-20T09:00:35.168873Z"}}}